Location: Brabourne
(51.1333°N, 1.0000°E)
Time: 21:29:12
(UTC+00:00)

Cosmos 405 Rocket - Pass Details

Date: 20 June 2021
Orbit: 489 x 552 km, 81.3° (Epoch: 02 August)

Event Time Altitude Azimuth Distance (km) Brightness Sun altitude
Exits shadow 01:59:17 11° 244° (WSW) 1,629 4.7 -10.8°
Maximum altitude 02:01:59 21° 294° (WNW) 1,142 4.4 -10.6°
Drops below altitude 10° 02:04:54 10° 346° (NNW) 1,696 6.0 -10.3°
Sets 02:07:24 0° 2° (N) 2,588 7.5 -10.1°
